QPF
0.01 0.03 0.07 0.06 0.05 0.05 0.04 0.04 0.03 0.03 0.04 0.04 0.06 0.06 0.07 0.06 0.06 0.06 0.06 0.06 0.07 0.12 0.13 0.10 0.09 0.09 0.11 0.15 0.16 0.18 0.18 0.14 0.13 0.16 0.15 0.10 0.09 0.09 0.07 0.07 0.07 0.05 0.04
0.01 0.03 0.06 0.06 0.03 0.04 0.04 0.04 0.03 0.04 0.05 0.05 0.06 0.07 0.07 0.07 0.06 0.06 0.06 0.07 0.09 0.12 0.10 0.11 0.10 0.09 0.11 0.14 0.17 0.18 0.18 0.20 0.21 0.20 0.19 0.14 0.12 0.12 0.09 0.07 0.07 0.06 0.06
0.01 0.02 0.05 0.05 0.03 0.02 0.03 0.06 0.04 0.04 0.05 0.07 0.06 0.09 0.10 0.08 0.06 0.07 0.09 0.11 0.14 0.14 0.14 0.13 0.10 0.10 0.11 0.14 0.16 0.15 0.21 0.25 0.20 0.18 0.18 0.17 0.19 0.16 0.11 0.07 0.07 0.07 0.06
0.01 0.01 0.03 0.05 0.03 0.02 0.04 0.05 0.04 0.04 0.06 0.06 0.07 0.10 0.11 0.09 0.07 0.08 0.12 0.15 0.17 0.17 0.18 0.13 0.13 0.12 0.14 0.15 0.16 0.14 0.15 0.20 0.20 0.16 0.13 0.10 0.10 0.12 0.12 0.11 0.10 0.10 0.09
0.01 0.01 0.04 0.06 0.04 0.06 0.07 0.08 0.07 0.06 0.05 0.05 0.07 0.10 0.10 0.10 0.10 0.12 0.15 0.19 0.21 0.17 0.16 0.18 0.16 0.13 0.15 0.18 0.19 0.20 0.23 0.24 0.22 0.14 0.10 0.09 0.08 0.10 0.11 0.17 0.15 0.12 0.10
0.01 0.01 0.04 0.09 0.08 0.07 0.07 0.06 0.07 0.08 0.08 0.09 0.10 0.11 0.09 0.09 0.11 0.15 0.18 0.18 0.17 0.15 0.18 0.23 0.20 0.18 0.21 0.20 0.20 0.19 0.24 0.28 0.22 0.11 0.09 0.08 0.08 0.09 0.09 0.10 0.09 0.09 0.09
0.00 0.02 0.04 0.09 0.09 0.08 0.06 0.04 0.05 0.07 0.08 0.10 0.12 0.12 0.10 0.11 0.14 0.14 0.14 0.13 0.13 0.16 0.19 0.23 0.22 0.20 0.23 0.23 0.23 0.21 0.23 0.26 0.16 0.08 0.05 0.06 0.06 0.08 0.07 0.08 0.07 0.07 0.08
0.01 0.03 0.07 0.09 0.08 0.08 0.06 0.04 0.03 0.05 0.06 0.09 0.12 0.13 0.10 0.10 0.11 0.12 0.12 0.13 0.15 0.16 0.17 0.19 0.22 0.18 0.22 0.23 0.24 0.22 0.21 0.20 0.12 0.07 0.06 0.05 0.06 0.06 0.07 0.07 0.07 0.07 0.08
0.00 0.02 0.07 0.09 0.06 0.05 0.06 0.04 0.04 0.05 0.05 0.07 0.08 0.09 0.09 0.10 0.11 0.11 0.11 0.13 0.15 0.15 0.15 0.16 0.20 0.19 0.21 0.22 0.22 0.19 0.19 0.16 0.10 0.06 0.04 0.04 0.07 0.07 0.08 0.08 0.09 0.09 0.10
0.01 0.01 0.02 0.04 0.04 0.03 0.05 0.07 0.06 0.06 0.06 0.07 0.08 0.08 0.10 0.13 0.13 0.13 0.12 0.16 0.18 0.17 0.16 0.16 0.21 0.23 0.23 0.23 0.22 0.21 0.19 0.14 0.08 0.06 0.04 0.05 0.07 0.08 0.08 0.10 0.10 0.11 0.11
0.01 0.01 0.01 0.02 0.03 0.05 0.06 0.07 0.07 0.08 0.09 0.09 0.12 0.13 0.12 0.11 0.11 0.13 0.13 0.18 0.20 0.19 0.18 0.18 0.24 0.27 0.23 0.22 0.22 0.21 0.14 0.09 0.07 0.05 0.05 0.06 0.07 0.09 0.10 0.09 0.09 0.10 0.11
0.01 0.01 0.02 0.02 0.03 0.06 0.07 0.06 0.05 0.06 0.06 0.08 0.09 0.11 0.09 0.10 0.11 0.11 0.15 0.21 0.24 0.22 0.19 0.19 0.21 0.21 0.14 0.14 0.16 0.11 0.07 0.07 0.07 0.06 0.06 0.09 0.09 0.09 0.09 0.10 0.10 0.10 0.11
0.01 0.01 0.02 0.03 0.05 0.07 0.08 0.05 0.05 0.04 0.06 0.07 0.06 0.08 0.08 0.10 0.11 0.11 0.14 0.18 0.18 0.16 0.13 0.13 0.12 0.09 0.06 0.06 0.06 0.04 0.04 0.06 0.06 0.07 0.10 0.11 0.10 0.10 0.10 0.12 0.14 0.15 0.15
0.02 0.02 0.04 0.04 0.06 0.08 0.08 0.06 0.04 0.05 0.06 0.05 0.05 0.06 0.08 0.10 0.09 0.10 0.12 0.12 0.10 0.10 0.10 0.08 0.08 0.06 0.05 0.03 0.03 0.02 0.03 0.04 0.04 0.08 0.12 0.10 0.09 0.10 0.13 0.16 0.18 0.16 0.13
0.02 0.03 0.05 0.07 0.08 0.09 0.07 0.07 0.06 0.06 0.06 0.05 0.05 0.05 0.06 0.09 0.11 0.12 0.12 0.12 0.10 0.10 0.10 0.09 0.07 0.05 0.05 0.04 0.03 0.03 0.03 0.04 0.06 0.06 0.06 0.07 0.08 0.09 0.11 0.12 0.11 0.09 0.07
0.02 0.03 0.05 0.07 0.06 0.05 0.06 0.05 0.05 0.05 0.06 0.06 0.04 0.04 0.05 0.08 0.14 0.16 0.18 0.16 0.14 0.11 0.09 0.08 0.06 0.05 0.05 0.03 0.03 0.03 0.03 0.04 0.04 0.03 0.03 0.05 0.06 0.06 0.08 0.08 0.07 0.06 0.05
0.01 0.02 0.05 0.05 0.04 0.05 0.08 0.05 0.03 0.04 0.05 0.04 0.03 0.04 0.08 0.10 0.09 0.13 0.19 0.17 0.15 0.11 0.10 0.10 0.09 0.06 0.04 0.04 0.04 0.02 0.02 0.04 0.04 0.02 0.03 0.04 0.04 0.07 0.09 0.08 0.07 0.07 0.07
0.00 0.01 0.03 0.02 0.04 0.09 0.10 0.05 0.04 0.03 0.03 0.04 0.03 0.04 0.05 0.04 0.03 0.04 0.09 0.12 0.15 0.13 0.12 0.11 0.09 0.05 0.03 0.03 0.02 0.01 0.02 0.02 0.03 0.03 0.02 0.01 0.03 0.04 0.06 0.08 0.08 0.08 0.07
0.00 0.00 0.01 0.02 0.05 0.11 0.08 0.04 0.03 0.03 0.03 0.03 0.02 0.02 0.01 0.01 0.01 0.02 0.03 0.07 0.15 0.15 0.12 0.08 0.05 0.03 0.02 0.02 0.01 0.01 0.01 0.03 0.04 0.04 0.02 0.01 0.03 0.03 0.04 0.05 0.06 0.06 0.06
0.01 0.01 0.01 0.02 0.03 0.05 0.05 0.04 0.03 0.02 0.03 0.02 0.02 0.02 0.01 0.01 0.01 0.02 0.03 0.06 0.10 0.11 0.08 0.05 0.03 0.03 0.03 0.03 0.02 0.02 0.03 0.04 0.04 0.05 0.05 0.03 0.04 0.05 0.04 0.04 0.04 0.05 0.07
0.01 0.01 0.02 0.03 0.02 0.02 0.02 0.01 0.01 0.01 0.02 0.02 0.01 0.01 0.01 0.01 0.01 0.01 0.02 0.03 0.04 0.04 0.05 0.04 0.03 0.04 0.04 0.02 0.03 0.04 0.03 0.03 0.03 0.04 0.05 0.05 0.03 0.03 0.03 0.04 0.05 0.06 0.05
0.01 0.02 0.03 0.04 0.03 0.02 0.01 0.01 0.01 0.01 0.01 0.01 0.01 0.01 0.01 0.01 0.01 0.01 0.01 0.02 0.02 0.03 0.03 0.03 0.03 0.03 0.02 0.02 0.03 0.04 0.04 0.04 0.03 0.04 0.04 0.03 0.03 0.03 0.03 0.04 0.05 0.06 0.05
0.01 0.02 0.03 0.04 0.04 0.02 0.02 0.01 0.01 0.01 0.01 0.01 0.01 0.01 0.01 0.01 0.01 0.02 0.02 0.02 0.02 0.02 0.01 0.01 0.02 0.02 0.02 0.02 0.04 0.04 0.04 0.03 0.03 0.03 0.03 0.03 0.03 0.03 0.04 0.05 0.05 0.06 0.06
0.01 0.02 0.02 0.03 0.04 0.03 0.02 0.01 0.01 0.01 0.01 0.02 0.03 0.03 0.03 0.02 0.01 0.02 0.02 0.02 0.02 0.02 0.01 0.00 0.01 0.02 0.02 0.02 0.04 0.04 0.04 0.04 0.03 0.02 0.02 0.03 0.03 0.03 0.04 0.04 0.04 0.05 0.05
0.01 0.02 0.01 0.01 0.02 0.04 0.03 0.02 0.01 0.03 0.05 0.06 0.07 0.05 0.05 0.03 0.01 0.01 0.01 0.01 0.02 0.02 0.03 0.02 0.01 0.02 0.03 0.04 0.04 0.05 0.05 0.04 0.03 0.02 0.02 0.03 0.03 0.04 0.04 0.04 0.03 0.02 0.03
0.01 0.02 0.02 0.02 0.02 0.02 0.02 0.03 0.06 0.10 0.07 0.06 0.07 0.06 0.04 0.03 0.02 0.01 0.01 0.01 0.02 0.02 0.02 0.02 0.02 0.03 0.04 0.05 0.06 0.05 0.05 0.04 0.04 0.02 0.01 0.02 0.03 0.04 0.04 0.03 0.02 0.02 0.03
MSLP
1008.48 1007.51 1006.65 1005.97 1005.49 1005.19 1005.03 1004.88 1004.61 1004.07 1003.12 1001.71 999.86 997.68 995.37 993.21 991.46 990.36 990.09 990.66 991.98 993.85 996.02 998.22 1000.24 1001.95 1003.29 1004.34 1005.20 1006.01 1006.85 1007.79 1008.82 1009.88 1010.88 1011.77 1012.48 1013.01 1013.40 1013.71 1014.00 1014.31 1014.68
1008.65 1007.71 1006.85 1006.15 1005.65 1005.34 1005.16 1004.99 1004.68 1004.04 1002.92 1001.25 999.04 996.44 993.67 991.04 988.89 987.50 987.09 987.70 989.22 991.43 994.04 996.73 999.23 1001.35 1003.03 1004.32 1005.33 1006.21 1007.08 1008.02 1009.04 1010.10 1011.11 1012.00 1012.72 1013.26 1013.65 1013.94 1014.22 1014.53 1014.91
1008.77 1007.88 1007.05 1006.36 1005.86 1005.54 1005.36 1005.17 1004.83 1004.13 1002.89 1001.04 998.58 995.66 992.54 989.56 987.10 985.47 984.93 985.53 987.18 989.62 992.55 995.60 998.46 1000.92 1002.88 1004.37 1005.52 1006.47 1007.38 1008.32 1009.34 1010.39 1011.40 1012.30 1013.02 1013.55 1013.93 1014.22 1014.49 1014.81 1015.21
1008.83 1008.02 1007.24 1006.58 1006.09 1005.78 1005.60 1005.42 1005.07 1004.36 1003.09 1001.16 998.60 995.54 992.25 989.09 986.44 984.66 984.03 984.60 986.27 988.81 991.89 995.12 998.19 1000.84 1002.96 1004.59 1005.83 1006.84 1007.77 1008.72 1009.73 1010.78 1011.78 1012.67 1013.38 1013.91 1014.28 1014.56 1014.83 1015.15 1015.56
1008.84 1008.13 1007.42 1006.81 1006.35 1006.06 1005.89 1005.72 1005.40 1004.73 1003.52 1001.66 999.16 996.16 992.91 989.77 987.12 985.31 984.63 985.13 986.75 989.24 992.28 995.50 998.57 1001.24 1003.39 1005.04 1006.31 1007.34 1008.27 1009.22 1010.22 1011.25 1012.24 1013.11 1013.80 1014.31 1014.67 1014.94 1015.20 1015.53 1015.94
1008.85 1008.24 1007.61 1007.05 1006.63 1006.36 1006.20 1006.06 1005.79 1005.21 1004.14 1002.47 1000.21 997.46 994.47 991.56 989.08 987.37 986.70 987.14 988.61 990.92 993.75 996.76 999.64 1002.15 1004.18 1005.76 1006.98 1007.98 1008.89 1009.83 1010.81 1011.81 1012.76 1013.60 1014.26 1014.75 1015.08 1015.34 1015.60 1015.92 1016.33
1008.91 1008.37 1007.83 1007.33 1006.94 1006.68 1006.53 1006.42 1006.20 1005.74 1004.87 1003.50 1001.60 999.28 996.73 994.22 992.07 990.57 989.97 990.34 991.61 993.63 996.10 998.74 1001.27 1003.48 1005.29 1006.70 1007.81 1008.74 1009.61 1010.50 1011.44 1012.40 1013.32 1014.11 1014.73 1015.18 1015.49 1015.73 1015.98 1016.28 1016.69
1009.05 1008.59 1008.10 1007.66 1007.30 1007.04 1006.88 1006.77 1006.61 1006.28 1005.64 1004.61 1003.17 1001.36 999.36 997.37 995.65 994.45 993.96 994.27 995.31 996.96 998.99 1001.16 1003.24 1005.07 1006.57 1007.76 1008.72 1009.56 1010.37 1011.21 1012.10 1013.01 1013.86 1014.59 1015.17 1015.58 1015.87 1016.09 1016.32 1016.62 1017.00
1009.29 1008.89 1008.46 1008.06 1007.72 1007.45 1007.27 1007.15 1007.02 1006.79 1006.37 1005.68 1004.70 1003.44 1002.01 1000.58 999.34 998.46 998.12 998.36 999.17 1000.43 1001.99 1003.66 1005.27 1006.69 1007.87 1008.84 1009.65 1010.39 1011.13 1011.91 1012.74 1013.58 1014.36 1015.03 1015.55 1015.93 1016.19 1016.40 1016.63 1016.92 1017.29
1009.63 1009.27 1008.90 1008.54 1008.20 1007.92 1007.71 1007.55 1007.42 1007.27 1007.03 1006.63 1006.04 1005.28 1004.40 1003.49 1002.69 1002.13 1001.92 1002.12 1002.70 1003.61 1004.73 1005.93 1007.11 1008.16 1009.07 1009.84 1010.52 1011.18 1011.86 1012.59 1013.35 1014.11 1014.81 1015.41 1015.88 1016.22 1016.48 1016.69 1016.92 1017.20 1017.56
1010.03 1009.71 1009.40 1009.08 1008.76 1008.47 1008.21 1008.01 1007.86 1007.73 1007.60 1007.41 1007.14 1006.78 1006.33 1005.87 1005.44 1005.15 1005.05 1005.20 1005.60 1006.21 1006.96 1007.79 1008.62 1009.39 1010.09 1010.72 1011.33 1011.93 1012.57 1013.24 1013.93 1014.60 1015.22 1015.74 1016.16 1016.48 1016.74 1016.96 1017.21 1017.50 1017.85
1010.42 1010.16 1009.91 1009.64 1009.36 1009.07 1008.79 1008.54 1008.35 1008.22 1008.13 1008.07 1008.00 1007.91 1007.78 1007.63 1007.48 1007.39 1007.38 1007.50 1007.76 1008.14 1008.64 1009.19 1009.78 1010.37 1010.95 1011.52 1012.09 1012.67 1013.26 1013.88 1014.49 1015.07 1015.59 1016.05 1016.42 1016.73 1017.00 1017.25 1017.52 1017.83 1018.17
1010.77 1010.57 1010.39 1010.18 1009.95 1009.68 1009.41 1009.14 1008.91 1008.75 1008.66 1008.65 1008.68 1008.74 1008.80 1008.85 1008.88 1008.92 1008.97 1009.07 1009.24 1009.49 1009.82 1010.23 1010.69 1011.20 1011.73 1012.28 1012.85 1013.42 1013.99 1014.54 1015.06 1015.54 1015.97 1016.35 1016.68 1016.98 1017.27 1017.56 1017.87 1018.20 1018.53
1011.03 1010.89 1010.78 1010.65 1010.49 1010.28 1010.03 1009.77 1009.53 1009.35 1009.24 1009.22 1009.28 1009.40 1009.55 1009.69 1009.83 1009.93 1010.03 1010.13 1010.26 1010.45 1010.71 1011.05 1011.47 1011.97 1012.51 1013.08 1013.67 1014.23 1014.76 1015.24 1015.66 1016.03 1016.36 1016.66 1016.95 1017.24 1017.55 1017.88 1018.23 1018.57 1018.90
1011.20 1011.12 1011.07 1011.02 1010.94 1010.81 1010.62 1010.41 1010.19 1010.00 1009.88 1009.84 1009.88 1010.00 1010.16 1010.35 1010.52 1010.67 1010.80 1010.92 1011.05 1011.24 1011.49 1011.84 1012.27 1012.79 1013.37 1013.97 1014.56 1015.10 1015.57 1015.97 1016.29 1016.55 1016.78 1017.00 1017.24 1017.52 1017.84 1018.19 1018.56 1018.92 1019.23
1011.31 1011.25 1011.25 1011.27 1011.27 1011.23 1011.14 1011.00 1010.84 1010.68 1010.56 1010.51 1010.53 1010.63 1010.77 1010.96 1011.14 1011.32 1011.48 1011.64 1011.82 1012.04 1012.32 1012.70 1013.17 1013.72 1014.32 1014.92 1015.50 1016.00 1016.41 1016.71 1016.92 1017.07 1017.20 1017.34 1017.52 1017.77 1018.09 1018.45 1018.82 1019.17 1019.47
1011.41 1011.36 1011.37 1011.43 1011.50 1011.55 1011.56 1011.53 1011.45 1011.36 1011.27 1011.22 1011.23 1011.30 1011.43 1011.60 1011.79 1012.00 1012.20 1012.41 1012.64 1012.92 1013.25 1013.66 1014.16 1014.72 1015.31 1015.90 1016.43 1016.88 1017.20 1017.42 1017.53 1017.58 1017.61 1017.67 1017.79 1018.00 1018.28 1018.62 1018.98 1019.30 1019.56
1011.57 1011.48 1011.48 1011.55 1011.66 1011.79 1011.90 1011.98 1012.00 1011.99 1011.96 1011.93 1011.94 1012.00 1012.11 1012.27 1012.48 1012.71 1012.96 1013.23 1013.52 1013.85 1014.22 1014.65 1015.15 1015.69 1016.25 1016.79 1017.27 1017.64 1017.90 1018.04 1018.07 1018.04 1017.99 1017.98 1018.04 1018.18 1018.41 1018.69 1019.00 1019.28 1019.50
1011.83 1011.68 1011.63 1011.68 1011.81 1011.99 1012.19 1012.36 1012.49 1012.57 1012.60 1012.60 1012.62 1012.66 1012.76 1012.92 1013.14 1013.40 1013.70 1014.02 1014.36 1014.73 1015.13 1015.56 1016.04 1016.54 1017.04 1017.52 1017.93 1018.25 1018.45 1018.54 1018.52 1018.44 1018.33 1018.26 1018.24 1018.31 1018.46 1018.66 1018.90 1019.11 1019.27
1012.20 1011.99 1011.87 1011.88 1012.00 1012.21 1012.46 1012.72 1012.93 1013.08 1013.16 1013.20 1013.22 1013.26 1013.34 1013.49 1013.71 1013.99 1014.32 1014.69 1015.07 1015.46 1015.86 1016.28 1016.71 1017.16 1017.60 1018.01 1018.37 1018.65 1018.83 1018.89 1018.86 1018.76 1018.63 1018.50 1018.42 1018.40 1018.45 1018.56 1018.69 1018.82 1018.93
1012.65 1012.38 1012.21 1012.17 1012.26 1012.48 1012.76 1013.07 1013.34 1013.54 1013.66 1013.72 1013.73 1013.75 1013.81 1013.93 1014.14 1014.42 1014.77 1015.16 1015.56 1015.96 1016.35 1016.74 1017.13 1017.52 1017.90 1018.26 1018.59 1018.85 1019.03 1019.11 1019.10 1019.01 1018.87 1018.71 1018.56 1018.46 1018.40 1018.40 1018.43 1018.47 1018.51
1013.13 1012.83 1012.62 1012.53 1012.60 1012.80 1013.10 1013.43 1013.74 1013.97 1014.12 1014.17 1014.16 1014.15 1014.16 1014.25 1014.42 1014.69 1015.03 1015.41 1015.82 1016.21 1016.59 1016.95 1017.29 1017.63 1017.96 1018.29 1018.60 1018.88 1019.08 1019.21 1019.24 1019.18 1019.05 1018.87 1018.67 1018.49 1018.33 1018.22 1018.14 1018.10 1018.07
1013.57 1013.28 1013.05 1012.94 1012.98 1013.18 1013.47 1013.82 1014.14 1014.39 1014.54 1014.58 1014.54 1014.48 1014.44 1014.47 1014.59 1014.82 1015.13 1015.50 1015.89 1016.27 1016.63 1016.95 1017.26 1017.56 1017.86 1018.17 1018.49 1018.78 1019.03 1019.20 1019.29 1019.28 1019.16 1018.98 1018.74 1018.49 1018.24 1018.03 1017.87 1017.74 1017.66
1013.91 1013.66 1013.44 1013.33 1013.37 1013.55 1013.85 1014.20 1014.53 1014.79 1014.93 1014.96 1014.89 1014.78 1014.69 1014.65 1014.72 1014.90 1015.17 1015.50 1015.86 1016.22 1016.55 1016.85 1017.12 1017.39 1017.67 1017.97 1018.29 1018.60 1018.89 1019.12 1019.25 1019.28 1019.19 1019.01 1018.75 1018.44 1018.14 1017.85 1017.62 1017.43 1017.30
1014.10 1013.92 1013.74 1013.65 1013.69 1013.88 1014.18 1014.54 1014.88 1015.15 1015.30 1015.32 1015.23 1015.08 1014.94 1014.85 1014.86 1014.98 1015.20 1015.50 1015.82 1016.15 1016.45 1016.71 1016.96 1017.20 1017.46 1017.74 1018.05 1018.38 1018.69 1018.95 1019.12 1019.18 1019.12 1018.94 1018.67 1018.35 1018.00 1017.68 1017.40 1017.18 1017.02
1014.14 1014.04 1013.92 1013.86 1013.92 1014.12 1014.43 1014.79 1015.15 1015.44 1015.60 1015.62 1015.53 1015.37 1015.20 1015.07 1015.04 1015.11 1015.28 1015.53 1015.81 1016.10 1016.37 1016.60 1016.82 1017.02 1017.25 1017.51 1017.80 1018.12 1018.43 1018.70 1018.89 1018.97 1018.93 1018.76 1018.51 1018.18 1017.83 1017.50 1017.21 1016.98 1016.81
Thickness
5772 5776 5778 5779 5780 5781 5782 5783 5784 5784 5785 5785 5785 5784 5784 5783 5783 5783 5783 5782 5782 5781 5780 5779 5778 5777 5775 5773 5771 5768 5766 5764 5762 5760 5758 5757 5756 5754 5753 5752 5751 5750 5749
5774 5776 5778 5779 5779 5780 5780 5781 5783 5783 5783 5784 5783 5783 5783 5783 5783 5782 5783 5783 5782 5781 5780 5778 5777 5775 5773 5771 5770 5768 5765 5763 5761 5760 5758 5756 5755 5753 5752 5751 5750 5749 5748
5775 5776 5777 5778 5778 5779 5779 5780 5781 5782 5782 5782 5782 5782 5782 5783 5782 5782 5783 5782 5781 5780 5779 5778 5776 5775 5773 5771 5769 5767 5765 5763 5760 5758 5756 5755 5754 5753 5752 5751 5749 5748 5747
5775 5775 5776 5777 5777 5778 5778 5779 5780 5781 5781 5781 5781 5781 5781 5781 5782 5782 5782 5781 5780 5779 5778 5777 5775 5774 5772 5770 5768 5766 5764 5762 5760 5757 5755 5754 5753 5752 5751 5750 5749 5747 5746
5774 5775 5776 5776 5777 5777 5777 5778 5779 5780 5780 5780 5780 5780 5780 5780 5781 5781 5781 5779 5778 5777 5776 5776 5775 5773 5772 5770 5767 5765 5763 5761 5759 5756 5754 5753 5752 5751 5750 5748 5748 5746 5745
5773 5774 5775 5776 5776 5776 5776 5777 5778 5778 5779 5779 5779 5779 5779 5780 5780 5780 5779 5778 5777 5776 5775 5775 5774 5773 5772 5769 5766 5764 5762 5760 5757 5755 5753 5752 5751 5750 5748 5747 5746 5745 5743
5772 5774 5774 5775 5775 5775 5776 5776 5777 5777 5778 5778 5778 5778 5778 5778 5778 5778 5777 5776 5775 5774 5773 5773 5772 5772 5770 5768 5765 5762 5760 5758 5756 5753 5752 5750 5749 5748 5747 5746 5745 5744 5742
5772 5773 5773 5774 5774 5774 5775 5775 5776 5776 5777 5777 5777 5776 5776 5776 5776 5776 5775 5774 5774 5772 5771 5771 5771 5770 5768 5767 5764 5761 5759 5757 5754 5752 5750 5749 5748 5748 5747 5745 5744 5743 5742
5773 5772 5773 5773 5773 5774 5774 5775 5775 5776 5776 5776 5776 5775 5775 5774 5774 5774 5774 5773 5772 5771 5770 5769 5769 5768 5767 5765 5763 5760 5757 5755 5753 5751 5750 5748 5747 5747 5746 5745 5744 5743 5742
5772 5772 5772 5772 5773 5773 5773 5774 5775 5776 5776 5776 5776 5775 5774 5773 5773 5772 5772 5772 5770 5769 5769 5768 5767 5766 5764 5763 5761 5759 5757 5754 5752 5750 5748 5747 5747 5746 5746 5744 5743 5742 5741
5771 5772 5772 5772 5772 5772 5773 5774 5774 5775 5775 5775 5774 5773 5773 5772 5772 5771 5770 5769 5769 5768 5768 5766 5765 5764 5762 5761 5759 5757 5755 5753 5751 5749 5747 5747 5746 5745 5745 5744 5743 5742 5741
5768 5770 5772 5772 5772 5772 5772 5773 5774 5774 5774 5773 5772 5772 5771 5770 5770 5769 5769 5768 5767 5767 5766 5765 5763 5761 5760 5758 5756 5754 5753 5751 5749 5748 5746 5746 5745 5745 5744 5743 5742 5741 5740
5769 5771 5772 5772 5772 5772 5772 5772 5772 5773 5772 5772 5772 5771 5770 5769 5768 5768 5767 5766 5765 5765 5764 5763 5762 5759 5758 5756 5754 5752 5750 5749 5747 5746 5746 5745 5745 5744 5743 5742 5741 5740 5739
5770 5771 5773 5773 5773 5772 5772 5772 5771 5771 5771 5771 5771 5770 5769 5768 5767 5766 5766 5764 5763 5763 5762 5761 5759 5757 5755 5754 5752 5750 5748 5747 5746 5745 5745 5745 5745 5743 5743 5741 5740 5738 5738
5771 5772 5773 5774 5774 5773 5772 5772 5771 5771 5771 5770 5770 5769 5768 5767 5766 5765 5764 5763 5762 5762 5761 5759 5757 5755 5753 5751 5750 5748 5746 5745 5744 5743 5743 5743 5743 5742 5741 5740 5738 5737 5736
5774 5774 5775 5775 5775 5774 5772 5771 5771 5771 5770 5770 5769 5768 5767 5767 5766 5764 5763 5762 5761 5760 5759 5757 5755 5753 5751 5749 5747 5746 5744 5743 5743 5742 5742 5741 5741 5740 5740 5739 5737 5736 5735
5777 5777 5776 5776 5776 5774 5773 5772 5771 5771 5770 5769 5768 5767 5767 5766 5765 5764 5762 5760 5759 5758 5757 5755 5753 5751 5748 5746 5744 5744 5743 5742 5741 5740 5740 5739 5738 5738 5737 5736 5736 5735 5734
5780 5778 5778 5779 5776 5775 5773 5772 5771 5770 5770 5769 5768 5767 5766 5765 5764 5763 5761 5759 5758 5756 5755 5753 5751 5748 5745 5743 5742 5741 5741 5740 5739 5738 5737 5737 5736 5735 5735 5734 5734 5733 5732
5782 5780 5779 5779 5777 5776 5775 5773 5772 5771 5770 5769 5768 5767 5765 5764 5763 5762 5760 5758 5757 5755 5753 5752 5748 5746 5743 5741 5740 5739 5739 5738 5737 5736 5735 5735 5734 5734 5733 5732 5731 5731 5730
5785 5783 5782 5780 5779 5777 5775 5774 5772 5771 5770 5769 5768 5767 5766 5764 5763 5761 5759 5758 5756 5754 5752 5750 5747 5744 5742 5740 5739 5737 5736 5736 5735 5734 5734 5733 5733 5732 5731 5730 5729 5728 5727
5787 5784 5783 5781 5780 5778 5775 5772 5770 5769 5769 5769 5769 5768 5766 5765 5763 5761 5759 5757 5755 5753 5751 5749 5746 5743 5740 5740 5736 5732 5733 5734 5733 5732 5732 5731 5731 5731 5730 5728 5727 5726 5725
5788 5786 5784 5783 5782 5780 5778 5775 5773 5771 5770 5769 5769 5768 5766 5765 5763 5762 5759 5757 5755 5753 5750 5748 5746 5742 5740 5739 5735 5730 5725 5726 5729 5731 5730 5730 5729 5729 5729 5728 5726 5724 5723
5790 5789 5788 5785 5784 5782 5780 5777 5775 5772 5770 5768 5767 5767 5767 5766 5764 5762 5760 5758 5755 5753 5750 5748 5746 5743 5739 5738 5738 5733 5725 5721 5723 5727 5728 5728 5727 5727 5726 5725 5724 5723 5722
5794 5793 5791 5788 5786 5783 5781 5778 5775 5770 5767 5768 5768 5767 5767 5766 5765 5763 5760 5758 5756 5754 5751 5749 5748 5745 5742 5738 5736 5736 5733 5730 5724 5721 5724 5725 5725 5724 5724 5723 5722 5721 5720
5798 5795 5792 5790 5787 5785 5783 5780 5776 5773 5771 5770 5769 5767 5766 5766 5765 5763 5761 5759 5757 5754 5752 5750 5748 5746 5744 5741 5738 5736 5733 5730 5728 5723 5719 5721 5722 5722 5722 5721 5720 5719 5718
5799 5796 5793 5790 5787 5786 5784 5781 5778 5774 5772 5769 5767 5766 5765 5764 5764 5763 5762 5760 5757 5755 5752 5750 5748 5747 5745 5743 5740 5738 5735 5731 5728 5724 5720 5719 5718 5719 5720 5719 5719 5718 5716